• En Estados Unidos
  • Lista de países
  • Para 7 días
  • Temperatura del agua
  • Mapa Satelital
  • El tiempo en el mapa
  • Informadores
  • user-avatar
    Iniciar sesión

    Tiempo cada hora Malanje

    Hoy, 20 Enero, Sábado

    Tiempo Temperatura Precipitaciones Viento Presión Humedad
    00:00 +20°C° 0,2 mm 1 mps 664 mmHg 99%
    01:00 +19°C° 0 mm 2 mps 664 mmHg 99%
    02:00 +19°C° 0,2 mm 2 mps 664 mmHg 99%
    03:00 +19°C° 0,2 mm 2 mps 664 mmHg 99%
    04:00 +20°C° 0,2 mm 1 mps 664 mmHg 98%
    05:00 +19°C° 0,1 mm 2 mps 664 mmHg 98%
    06:00 +19°C° 0,1 mm 2 mps 664 mmHg 98%
    07:00 +20°C° 0 mm 1 mps 665 mmHg 97%
    08:00 +20°C° 0,1 mm 2 mps 665 mmHg 91%
    09:00 +23°C° 0,1 mm 2 mps 665 mmHg 86%
    10:00 +24°C° 0,1 mm 2 mps 665 mmHg 80%
    11:00 +25°C° 0,4 mm 2 mps 665 mmHg 78%
    12:00 +25°C° 0,4 mm 2 mps 664 mmHg 76%
    13:00 +26°C° 0,4 mm 2 mps 664 mmHg 74%
    14:00 +26°C° 0,8 mm 2 mps 663 mmHg 77%
    15:00 +25°C° 0,8 mm 2 mps 663 mmHg 80%
    16:00 +25°C° 0,8 mm 2 mps 663 mmHg 83%
    17:00 +24°C° 0,3 mm 2 mps 663 mmHg 87%
    18:00 +21°C° 0,3 mm 2 mps 663 mmHg 91%
    19:00 +20°C° 0,3 mm 2 mps 663 mmHg 95%
    20:00 +20°C° 0,4 mm 2 mps 663 mmHg 96%
    21:00 +19°C° 0,4 mm 2 mps 664 mmHg 97%
    22:00 +19°C° 0,4 mm 2 mps 665 mmHg 98%
    23:00 +19°C° 0,2 mm 2 mps 665 mmHg 98%

    Mañana, 21 Enero, Domingo

    Tiempo Temperatura Precipitaciones Viento Presión Humedad
    00:00 +19°C° 0,2 mm 2 mps 665 mmHg 98%
    01:00 +18°C° 0,2 mm 2 mps 664 mmHg 99%
    02:00 +18°C° 0,1 mm 2 mps 664 mmHg 98%
    03:00 +18°C° 0,1 mm 2 mps 664 mmHg 98%
    04:00 +18°C° 0,1 mm 2 mps 664 mmHg 98%
    05:00 +18°C° 0,3 mm 2 mps 665 mmHg 98%
    06:00 +19°C° 0,3 mm 1 mps 665 mmHg 98%
    07:00 +19°C° 0,3 mm 1 mps 665 mmHg 98%
    08:00 +20°C° 0,3 mm 1 mps 666 mmHg 96%
    09:00 +20°C° 0,3 mm 1 mps 666 mmHg 95%
    10:00 +20°C° 0,3 mm 1 mps 666 mmHg 94%
    11:00 +21°C° 0,1 mm 1 mps 666 mmHg 92%
    12:00 +20°C° 0,1 mm 2 mps 666 mmHg 91%
    13:00 +20°C° 0,1 mm 2 mps 665 mmHg 89%
    14:00 +21°C° 0,4 mm 2 mps 665 mmHg 87%
    15:00 +23°C° 0,4 mm 2 mps 664 mmHg 85%
    16:00 +24°C° 0,4 mm 3 mps 664 mmHg 84%
    17:00 +21°C° 0,4 mm 2 mps 664 mmHg 88%
    18:00 +20°C° 0,4 mm 2 mps 664 mmHg 92%
    19:00 +19°C° 0,4 mm 2 mps 664 mmHg 96%
    20:00 +18°C° 0 mm 2 mps 664 mmHg 97%
    21:00 +19°C° 0 mm 1 mps 664 mmHg 97%
    22:00 +19°C° 0 mm 1 mps 665 mmHg 98%
    23:00 +18°C° 0 mm 1 mps 664 mmHg 98%

    Pasado mañana, 22 Enero, Lunes

    Tiempo Temperatura Precipitaciones Viento Presión Humedad
    00:00 +18°C° 0 mm 1 mps 664 mmHg 97%
    01:00 +18°C° 0 mm 1 mps 664 mmHg 97%
    02:00 +18°C° 0 mm 1 mps 664 mmHg 97%
    03:00 +18°C° 0 mm 1 mps 664 mmHg 97%
    04:00 +16°C° 0 mm 1 mps 664 mmHg 97%
    05:00 +18°C° 0 mm 1 mps 664 mmHg 96%
    06:00 +18°C° 0 mm 1 mps 665 mmHg 95%
    07:00 +16°C° 0 mm 0 mps 665 mmHg 94%
    08:00 +20°C° 0 mm 1 mps 666 mmHg 87%
    09:00 +22°C° 0 mm 1 mps 666 mmHg 79%
    10:00 +24°C° 0 mm 2 mps 667 mmHg 71%
    11:00 +25°C° 0,2 mm 2 mps 666 mmHg 68%
    12:00 +26°C° 0,2 mm 2 mps 666 mmHg 65%
    13:00 +27°C° 0,2 mm 2 mps 665 mmHg 61%
    14:00 +27°C° 0,5 mm 2 mps 665 mmHg 66%
    15:00 +26°C° 0,5 mm 2 mps 664 mmHg 70%
    16:00 +26°C° 0,5 mm 2 mps 663 mmHg 74%
    17:00 +24°C° 0,5 mm 2 mps 663 mmHg 80%
    18:00 +21°C° 0,5 mm 2 mps 664 mmHg 87%
    19:00 +19°C° 0,5 mm 2 mps 664 mmHg 93%
    20:00 +19°C° 0,4 mm 2 mps 664 mmHg 95%
    21:00 +19°C° 0,4 mm 2 mps 665 mmHg 96%
    22:00 +19°C° 0,4 mm 1 mps 665 mmHg 97%
    23:00 +18°C° 0 mm 2 mps 665 mmHg 97%

    23 Enero, Martes

    Tiempo Temperatura Precipitaciones Viento Presión Humedad
    00:00 +18°C° 0 mm 2 mps 664 mmHg 98%
    01:00 +18°C° 0 mm 2 mps 664 mmHg 98%
    02:00 +18°C° 0 mm 2 mps 664 mmHg 98%
    03:00 +18°C° 0 mm 2 mps 664 mmHg 98%
    04:00 +18°C° 0 mm 2 mps 663 mmHg 98%
    05:00 +18°C° 0 mm 2 mps 664 mmHg 97%
    06:00 +18°C° 0 mm 2 mps 664 mmHg 96%
    07:00 +18°C° 0 mm 2 mps 665 mmHg 96%
    08:00 +20°C° 0 mm 2 mps 665 mmHg 87%
    09:00 +21°C° 0 mm 2 mps 665 mmHg 78%
    10:00 +24°C° 0 mm 2 mps 666 mmHg 70%
    11:00 +25°C° 0 mm 2 mps 665 mmHg 65%
    12:00 +27°C° 0 mm 2 mps 665 mmHg 61%
    13:00 +28°C° 0 mm 3 mps 664 mmHg 56%
    14:00 +28°C° 0,3 mm 3 mps 663 mmHg 61%
    15:00 +27°C° 0,3 mm 3 mps 663 mmHg 65%
    16:00 +27°C° 0,3 mm 3 mps 662 mmHg 69%
    17:00 +25°C° 0,6 mm 2 mps 662 mmHg 76%
    18:00 +23°C° 0,6 mm 2 mps 662 mmHg 84%
    19:00 +20°C° 0,6 mm 2 mps 663 mmHg 91%
    20:00 +19°C° 0,3 mm 2 mps 663 mmHg 92%
    21:00 +20°C° 0,3 mm 1 mps 664 mmHg 93%
    22:00 +19°C° 0,3 mm 1 mps 664 mmHg 94%
    23:00 +19°C° 0,6 mm 1 mps 664 mmHg 95%

    24 Enero, Miércoles

    Tiempo Temperatura Precipitaciones Viento Presión Humedad
    00:00 +19°C° 0,6 mm 1 mps 664 mmHg 97%
    01:00 +18°C° 0,6 mm 2 mps 663 mmHg 98%
    02:00 +18°C° 0,2 mm 2 mps 663 mmHg 98%
    03:00 +18°C° 0,2 mm 2 mps 663 mmHg 98%
    04:00 +18°C° 0,2 mm 2 mps 663 mmHg 98%
    05:00 +18°C° 0 mm 2 mps 664 mmHg 98%
    06:00 +18°C° 0 mm 2 mps 664 mmHg 97%
    07:00 +20°C° 0 mm 1 mps 665 mmHg 97%
    08:00 +21°C° 0,3 mm 1 mps 665 mmHg 93%
    09:00 +22°C° 0,3 mm 1 mps 665 mmHg 90%
    10:00 +23°C° 0,3 mm 1 mps 666 mmHg 86%
    11:00 +23°C° 1 mm 1 mps 665 mmHg 84%
    12:00 +24°C° 1 mm 2 mps 664 mmHg 82%
    13:00 +25°C° 1 mm 2 mps 664 mmHg 80%
    14:00 +25°C° 0,9 mm 2 mps 664 mmHg 81%
    15:00 +24°C° 0,9 mm 1 mps 663 mmHg 82%
    16:00 +24°C° 0,9 mm 1 mps 663 mmHg 84%
    17:00 +23°C° 0,6 mm 1 mps 663 mmHg 87%
    18:00 +22°C° 0,6 mm 1 mps 663 mmHg 90%
    19:00 +21°C° 0,6 mm 1 mps 663 mmHg 93%
    20:00 +20°C° 0,2 mm 1 mps 664 mmHg 94%
    21:00 +20°C° 0,2 mm 1 mps 664 mmHg 94%
    22:00 +20°C° 0,2 mm 1 mps 664 mmHg 95%
    23:00 +19°C° 0,2 mm 1 mps 664 mmHg 95%

    25 Enero, Jueves

    Tiempo Temperatura Precipitaciones Viento Presión Humedad
    00:00 +17°C° 0,2 mm 0 mps 664 mmHg 95%
    01:00 +17°C° 0,2 mm 0 mps 663 mmHg 96%
    02:00 +17°C° 0,1 mm 0 mps 663 mmHg 96%
    03:00 +16°C° 0,1 mm 0 mps 663 mmHg 97%
    04:00 +16°C° 0,1 mm 0 mps 663 mmHg 97%
    05:00 +17°C° 0 mm 0 mps 663 mmHg 96%
    06:00 +17°C° 0 mm 0 mps 664 mmHg 95%
    07:00 +18°C° 0 mm 0 mps 664 mmHg 94%
    08:00 +22°C° 0,3 mm 1 mps 665 mmHg 87%
    09:00 +24°C° 0,3 mm 1 mps 665 mmHg 79%
    10:00 +26°C° 0,3 mm 1 mps 666 mmHg 71%
    11:00 +26°C° 0,6 mm 2 mps 665 mmHg 69%
    12:00 +27°C° 0,6 mm 2 mps 665 mmHg 66%
    13:00 +28°C° 0,6 mm 2 mps 664 mmHg 63%
    14:00 +28°C° 0,7 mm 2 mps 664 mmHg 67%
    15:00 +27°C° 0,7 mm 2 mps 663 mmHg 71%
    16:00 +27°C° 0,7 mm 2 mps 663 mmHg 75%
    17:00 +25°C° 0,7 mm 2 mps 663 mmHg 81%
    18:00 +23°C° 0,7 mm 2 mps 663 mmHg 86%
    19:00 +21°C° 0,7 mm 1 mps 663 mmHg 92%
    20:00 +20°C° 0,1 mm 1 mps 663 mmHg 92%
    21:00 +20°C° 0,1 mm 1 mps 663 mmHg 93%
    22:00 +19°C° 0,1 mm 1 mps 664 mmHg 93%
    23:00 +19°C° 0,1 mm 1 mps 663 mmHg 95%
    Mostrar más